Location: ?????????
(54.7630°N, 39.4991°E)
Time: 11:52:29
(UTC+00:00)

NOSS 3-4 (A) - Pass Details

Date: 14 April 2026
Orbit: 769 x 1442 km, 63.4° (Epoch: 10 January)

Event Time Altitude Azimuth Distance (km) Brightness Sun altitude
Rises 19:54:55 0° 243° (WSW) 3,270 6.2 -23.0°
Reaches altitude 10° 19:57:14 10° 246° (WSW) 2,380 5.5 -23.2°
Maximum altitude 20:02:38 64° 328° (NNW) 959 3.6 -23.5°
Drops below altitude 10° 20:08:49 10° 51° (NE) 2,717 6.0 -23.8°
Sets 20:11:38 0° 54° (NE) 3,771 6.8 -23.9°
